Weather History for Rickenbacker, OH

Change the Weather History Date:

Monday, January 13, 2014

  Actual Average Record
Temperature  
Mean Temperature 44 °F -  
Max Temperature 50 °F 34 °F 69 °F (2005)
Min Temperature 37 °F 20 °F 0 °F (1997)
Degree Days  
Heating Degree Days 22    
Moisture  
Dew Point 36 °F    
Average Humidity 71    
Maximum Humidity 88    
Minimum Humidity 54    
Precipitation  
Precipitation 0.00 in - - ()
Sea Level Pressure  
Sea Level Pressure 29.79 in    
Wind  
Wind Speed 10 mph (South)    
Max Wind Speed 17 mph    
Max Gust Speed 22 mph    
Visibility 9 miles    
Events Rain    
Averages and records for this station are not official NWS values.
T = Trace of Precipitation, MM = Missing Value Source: NWS Daily Summary

Daily Weather History Graph

Daily Weather History Graph

Search for Another Location

Airport:

Trip Planner

Search our weather history database for the weather conditions in past years. The results will help you decide how hot, cold, wet, or windy it might be!

Date:

Astronomy

Jan. 13, 2014 Rise Set
Actual Time 7:51 AM EST 5:29 PM EST
Civil Twilight 7:22 AM EST 5:59 PM EST
Nautical Twilight 6:48 AM EST 6:32 PM EST
Astronomical Twilight 6:16 AM EST 7:04 PM EST
Moon 3:43 PM EST (1/13) 5:39 AM EST (1/13)
Length of Visible Light 10h 36m
Length of Day
9h 37m
Waxing Gibbous, 95% of the Moon is Illuminated
Jan 13
Waxing Gibbous
Jan 15
Full
Jan 24
Last Quarter
Jan 30
New
Feb 6
First Quarter

Hourly Weather History & Observations

Time (EST) Temp. Windchill Dew Point Humidity Pressure Visibility Wind Dir Wind Speed Gust Speed Precip Events Conditions
12:15 AM 39.9 °F 31.8 °F 28.8 °F 64% 29.89 in 10.0 mi South 15.0 mph - N/A   Clear
12:35 AM 40.3 °F 34.4 °F 28.4 °F 63% 29.88 in 10.0 mi South 9.2 mph - N/A   Clear
12:55 AM 40.1 °F 33.6 °F 28.0 °F 62% 29.89 in 10.0 mi South 10.4 mph - N/A   Clear
1:15 AM 39.2 °F 33.0 °F 27.9 °F 64% 29.88 in 10.0 mi South 9.2 mph - N/A   Clear
1:35 AM 39.4 °F 32.3 °F 27.9 °F 63% 29.88 in 10.0 mi South 11.5 mph - N/A   Clear
1:55 AM 39.7 °F 33.7 °F 27.9 °F 63% 29.90 in 10.0 mi South 9.2 mph - N/A   Clear
2:15 AM 39.4 °F 33.2 °F 27.9 °F 63% 29.91 in 10.0 mi South 9.2 mph - N/A   Clear
2:35 AM 39.2 °F 33.0 °F 28.0 °F 64% 29.91 in 10.0 mi South 9.2 mph - N/A   Clear
2:55 AM 38.7 °F 34.3 °F 27.9 °F 65% 29.90 in 10.0 mi South 5.8 mph - N/A   Clear
3:15 AM 37.6 °F 31.6 °F 27.7 °F 67% 29.90 in 10.0 mi SSE 8.1 mph - N/A   Clear
3:35 AM 37.4 °F 31.4 °F 28.0 °F 69% 29.90 in 10.0 mi SSE 8.1 mph - N/A   Clear
3:55 AM 37.6 °F 32.3 °F 28.2 °F 69% 29.88 in 10.0 mi SSE 6.9 mph - N/A   Clear
4:15 AM 38.1 °F 32.9 °F 28.2 °F 68% 29.88 in 10.0 mi SSE 6.9 mph - N/A   Clear
4:35 AM 38.5 °F 32.1 °F 28.6 °F 68% 29.87 in 10.0 mi SSE 9.2 mph - N/A   Clear
4:55 AM 39.6 °F 34.0 °F 29.1 °F 66% 29.87 in 10.0 mi South 8.1 mph - N/A   Clear
5:15 AM 41.0 °F 34.7 °F 29.3 °F 63% 29.87 in 10.0 mi South 10.4 mph - N/A   Clear
5:35 AM 41.9 °F 35.9 °F 29.3 °F 61% 29.87 in 10.0 mi South 10.4 mph - N/A   Clear
5:55 AM 42.4 °F 37.0 °F 29.7 °F 61% 29.86 in 10.0 mi South 9.2 mph - N/A   Clear
6:15 AM 43.2 °F 37.4 °F 30.0 °F 60% 29.86 in 10.0 mi South 10.4 mph - N/A   Clear
6:35 AM 43.7 °F 38.1 °F 29.7 °F 58% 29.85 in 10.0 mi South 10.4 mph - N/A   Clear
6:55 AM 44.6 °F 38.8 °F 29.7 °F 56% 29.85 in 10.0 mi South 11.5 mph - N/A   Clear
7:15 AM 44.4 °F 39.0 °F 29.7 °F 56% 29.84 in 10.0 mi South 10.4 mph - N/A   Clear
7:35 AM 43.5 °F 37.9 °F 29.8 °F 59% 29.82 in 10.0 mi South 10.4 mph - N/A   Clear
7:55 AM 43.0 °F 38.2 °F 29.8 °F 60% 29.81 in 10.0 mi South 8.1 mph - N/A   Clear
8:15 AM 43.5 °F 37.1 °F 29.8 °F 59% 29.82 in 10.0 mi South 12.7 mph - N/A   Clear
8:35 AM 43.5 °F 38.3 °F 30.2 °F 59% 29.80 in 10.0 mi SSE 9.2 mph - N/A   Clear
8:55 AM 43.5 °F 37.5 °F 30.2 °F 59% 29.81 in 10.0 mi South 11.5 mph - N/A   Clear
9:15 AM 44.1 °F 37.4 °F 30.2 °F 58% 29.81 in 10.0 mi South 13.8 mph - N/A   Clear
9:35 AM 44.4 °F 37.5 °F 30.2 °F 57% 29.81 in 10.0 mi South 15.0 mph - N/A   Clear
9:55 AM 45.1 °F 39.5 °F 30.2 °F 56% 29.81 in 10.0 mi South 11.5 mph - N/A   Clear
10:15 AM 45.5 °F 39.2 °F 30.7 °F 56% 29.81 in 10.0 mi South 13.8 mph - N/A   Scattered Clouds
10:35 AM 45.9 °F 40.8 °F 30.9 °F 56% 29.79 in 10.0 mi South 10.4 mph - N/A   Clear
10:55 AM 46.4 °F 41.1 °F 31.3 °F 56% 29.79 in 10.0 mi South 11.5 mph - N/A   Clear
11:15 AM 47.1 °F - 31.1 °F 54% 29.78 in 10.0 mi South 9.2 mph - N/A   Clear
11:35 AM 47.8 °F - 31.8 °F 54% 29.77 in 10.0 mi South 11.5 mph - N/A   Clear
11:55 AM 48.4 °F - 32.4 °F 54% 29.77 in 10.0 mi South 15.0 mph - N/A Rain Rain
12:15 PM 46.8 °F - 35.1 °F 64% 29.76 in 10.0 mi South 9.2 mph - N/A Rain Light Rain
12:35 PM 47.1 °F - 35.8 °F 65% 29.75 in 10.0 mi South 6.9 mph - N/A   Mostly Cloudy
12:55 PM 47.3 °F - 36.1 °F 65% 29.75 in 10.0 mi South 9.2 mph - N/A Rain Light Rain
1:15 PM 46.4 °F 42.9 °F 36.9 °F 69% 29.74 in 10.0 mi South 6.9 mph - N/A Rain Light Rain
1:35 PM 46.2 °F 43.3 °F 37.6 °F 72% 29.73 in 10.0 mi SSE 5.8 mph - N/A Rain Rain
1:55 PM 46.2 °F 42.7 °F 38.1 °F 73% 29.74 in 10.0 mi SSE 6.9 mph - N/A Rain Light Rain
2:15 PM 47.5 °F - 39.6 °F 74% 29.74 in 10.0 mi SSW 13.8 mph - N/A Rain Light Rain
2:35 PM 49.8 °F - 41.2 °F 72% 29.74 in 10.0 mi SSW 15.0 mph - N/A   Light Drizzle
2:55 PM 50.0 °F - 41.7 °F 73% 29.73 in 10.0 mi South 10.4 mph - N/A Rain Light Rain
3:15 PM 50.2 °F - 41.9 °F 73% 29.73 in 10.0 mi South 12.7 mph - N/A   Overcast
3:35 PM 50.4 °F - 41.5 °F 72% 29.74 in 10.0 mi South 13.8 mph - N/A   Overcast
3:55 PM 50.4 °F - 41.5 °F 72% 29.73 in 10.0 mi South 13.8 mph - N/A   Overcast
4:15 PM 50.2 °F - 41.5 °F 72% 29.74 in 10.0 mi SSW 15.0 mph 21.9 mph N/A   Overcast
4:35 PM 50.0 °F - 41.9 °F 74% 29.74 in 10.0 mi SSW 16.1 mph - N/A   Overcast
4:55 PM 49.6 °F - 42.3 °F 76% 29.73 in 10.0 mi South 17.3 mph 21.9 mph N/A Rain Light Rain
5:15 PM 48.9 °F - 43.0 °F 80% 29.73 in 10.0 mi SSW 12.7 mph - N/A Rain Light Rain
5:35 PM 48.4 °F - 43.3 °F 83% 29.72 in 10.0 mi South 10.4 mph - N/A Rain Light Rain
5:55 PM 48.2 °F - 43.7 °F 84% 29.71 in 10.0 mi South 9.2 mph - N/A Rain Light Rain
6:15 PM 48.0 °F - 43.7 °F 85% 29.72 in 10.0 mi South 8.1 mph - N/A Rain Light Rain
6:35 PM 47.8 °F - 43.7 °F 86% 29.71 in 10.0 mi South 9.2 mph - N/A Rain Light Rain
6:55 PM 47.5 °F - 43.7 °F 87% 29.71 in 10.0 mi South 8.1 mph - N/A Rain Light Rain
7:15 PM 47.5 °F - 43.9 °F 87% 29.72 in 7.0 mi South 8.1 mph - N/A Rain Rain
7:35 PM 47.5 °F - 44.1 °F 88% 29.72 in 7.0 mi South 9.2 mph - N/A Rain Light Rain
7:55 PM 47.5 °F - 44.1 °F 88% 29.72 in 7.0 mi SSW 8.1 mph - N/A Rain Light Rain
8:15 PM 47.5 °F - 44.1 °F 88% 29.72 in 7.0 mi SSW 9.2 mph - N/A Rain Rain
8:35 PM 47.3 °F - 43.9 °F 88% 29.73 in 5.0 mi South 10.4 mph - N/A Rain Light Rain
8:55 PM 47.3 °F - 44.1 °F 88% 29.72 in 3.0 mi South 9.2 mph - N/A Rain Heavy Rain
9:15 PM 47.3 °F - 44.1 °F 88% 29.72 in 4.0 mi SSW 8.1 mph - N/A   Heavy Drizzle
9:35 PM 47.3 °F - 44.1 °F 88% 29.72 in 4.0 mi SSW 8.1 mph - N/A   Heavy Drizzle
9:55 PM 47.3 °F - 43.9 °F 88% 29.72 in 4.0 mi SSW 6.9 mph - N/A Rain Light Rain
10:15 PM 47.3 °F - 44.1 °F 88% 29.72 in 7.0 mi SW 5.8 mph - N/A   Heavy Drizzle
10:35 PM 47.3 °F - 44.1 °F 88% 29.72 in 10.0 mi WSW 9.2 mph - N/A   Light Drizzle
10:55 PM 47.3 °F - 44.1 °F 88% 29.72 in 10.0 mi WSW 8.1 mph - N/A   Drizzle
11:15 PM 46.9 °F - 43.7 °F 88% 29.73 in 10.0 mi WSW 6.9 mph - N/A Rain Rain
11:35 PM 46.4 °F 42.9 °F 43.2 °F 88% 29.73 in 10.0 mi WSW 6.9 mph - N/A Rain Light Rain
11:55 PM 46.4 °F 44.3 °F 43.0 °F 88% 29.73 in 7.0 mi WSW 4.6 mph - N/A Rain Light Rain